RH
101 99 101 98 75 41 23 22 26 39 52 52 42 33 32 32 32 31 31 30 30 30 31 31 31 33 34 32 29 29 31 35 44 53 58 56 52 47 42 35 26 25 30 34 37 40 41 37 31 28 33 40 48 56 62 70 78 84 87 90 93 97 96
101 100 100 101 87 54 29 22 25 33 46 56 54 43 35 33 34 33 32 32 31 31 32 31 32 34 36 34 31 31 30 29 35 47 57 59 55 49 45 38 27 21 24 29 33 37 40 41 37 30 29 32 37 45 52 58 66 75 83 87 89 91 95
100 100 99 101 96 70 38 25 26 31 40 53 61 55 44 37 35 35 34 33 32 33 33 32 32 35 38 37 33 34 34 29 30 40 53 60 59 52 47 42 31 21 19 23 29 33 36 40 42 37 31 29 30 35 42 47 53 61 71 81 86 87 90
100 101 99 100 100 83 53 33 29 31 37 49 62 64 57 47 40 36 35 35 34 34 34 34 33 35 40 39 36 38 39 35 31 35 47 58 62 56 48 44 37 26 19 19 23 29 33 36 41 42 37 31 28 29 33 38 43 48 56 66 76 83 87
100 100 100 100 100 92 70 46 35 32 35 44 58 67 65 58 49 42 38 37 35 35 36 36 34 36 40 40 39 42 45 41 35 34 43 56 63 59 51 46 42 32 22 17 18 24 31 35 37 42 43 38 32 28 28 31 35 39 44 51 61 72 79
100 100 100 100 100 99 85 61 44 36 34 40 53 65 69 66 59 51 45 41 39 37 37 38 37 37 40 40 41 47 51 47 39 35 42 55 63 62 55 48 45 37 26 19 17 19 28 35 37 40 44 44 39 32 28 28 30 32 36 39 46 56 66
101 100 101 100 100 101 93 74 55 43 37 38 48 61 69 71 67 61 55 49 45 41 39 39 39 39 40 41 43 51 55 51 44 39 43 56 65 65 59 52 48 42 31 22 18 17 22 32 38 39 42 46 45 39 32 29 28 29 30 32 36 42 51
100 100 100 100 100 101 98 85 66 52 43 40 46 58 67 72 72 69 64 57 52 48 44 42 41 41 42 43 47 54 56 52 47 44 47 59 69 69 63 58 53 48 39 27 21 18 19 25 35 41 42 44 46 44 39 34 30 29 29 29 30 33 38
100 101 100 100 100 100 100 91 73 58 50 45 47 56 65 71 74 74 71 66 60 55 51 48 47 45 45 47 52 55 55 54 51 47 51 64 73 72 68 63 58 54 47 35 25 21 19 21 30 38 42 44 45 46 45 41 35 32 31 31 29 29 31
100 100 100 100 100 100 100 94 78 63 56 50 47 52 60 69 74 75 74 72 68 63 58 55 53 51 50 52 55 55 56 58 55 50 55 68 75 75 73 69 63 60 56 46 34 26 22 21 23 30 38 44 46 46 47 45 40 33 32 33 32 29 28
100 100 100 100 100 100 100 96 82 68 61 55 49 50 57 67 74 75 75 76 74 70 66 62 59 58 58 57 57 57 59 62 57 52 58 72 77 77 79 77 70 67 65 56 44 34 29 26 23 23 29 39 45 47 46 46 44 38 34 33 33 32 31
100 100 100 100 100 100 101 97 84 72 65 58 52 51 55 63 72 76 75 76 77 76 72 69 65 63 63 63 61 62 63 63 58 56 64 75 78 79 83 83 77 74 73 68 57 46 37 32 28 24 23 29 38 45 48 48 46 43 38 34 33 33 34
100 100 100 100 100 100 101 98 87 75 68 61 55 55 56 59 66 73 76 77 77 78 78 75 71 68 67 68 67 66 66 65 62 63 70 75 75 77 83 87 84 82 81 78 71 62 50 40 35 32 27 24 27 35 43 48 49 47 42 37 34 33 34
100 100 100 100 100 100 101 98 89 78 70 64 59 59 59 58 59 65 74 79 79 79 80 80 77 72 71 73 71 69 70 70 68 70 73 73 74 77 82 87 89 88 88 87 83 77 67 55 46 39 34 29 26 28 32 38 44 48 46 41 38 35 34
100 100 100 100 100 100 101 99 91 80 72 66 62 61 61 59 58 59 67 78 83 81 81 83 83 78 76 76 73 72 75 75 73 76 77 75 76 80 83 87 89 88 89 92 94 92 85 74 62 50 41 36 33 31 29 29 31 37 41 42 42 38 35
99 100 100 100 100 100 101 99 92 84 75 67 63 63 61 58 58 59 63 74 84 86 85 86 87 85 81 78 76 77 81 80 77 80 82 80 81 83 84 87 92 90 86 88 94 100 98 90 80 67 54 45 41 39 36 29 26 27 29 32 35 37 38
100 100 100 100 100 100 101 99 93 86 77 68 62 62 60 57 58 61 66 74 84 89 91 91 91 90 86 81 79 82 85 84 84 85 85 86 90 90 88 88 92 93 90 87 90 97 101 100 94 86 75 63 55 50 42 35 33 31 26 23 23 25 29
101 100 100 100 100 100 101 99 93 86 77 68 62 60 59 59 61 65 70 78 85 90 94 96 97 95 90 85 83 85 89 93 95 92 88 90 94 92 89 91 92 93 94 93 91 92 98 102 100 97 93 83 73 63 52 45 44 37 30 26 24 23 22
101 100 100 100 100 101 101 98 92 86 77 67 63 61 58 60 64 69 75 82 88 93 97 100 99 96 93 90 87 89 94 99 102 98 93 95 94 87 85 91 94 94 96 98 96 92 93 98 100 100 99 94 87 77 66 62 58 46 36 33 31 27 26
101 100 100 100 100 100 101 98 92 86 76 66 62 61 59 61 66 73 81 88 92 96 99 101 100 98 96 93 91 94 100 102 102 101 98 96 91 85 87 94 97 95 95 97 98 94 89 90 93 93 92 92 92 89 81 76 72 62 53 46 39 34 31
101 100 100 100 100 100 101 98 91 84 75 65 60 59 59 61 68 79 88 94 96 98 100 101 101 101 100 97 96 99 103 102 101 100 98 94 89 88 93 98 97 96 96 95 97 97 93 90 89 85 83 85 90 92 89 84 80 76 71 63 56 49 41
101 100 100 100 100 101 102 99 91 82 73 63 58 59 60 63 74 88 97 99 100 101 102 103 103 102 102 101 100 101 102 102 102 100 97 95 95 96 97 96 94 95 95 94 97 101 101 96 89 83 78 79 83 85 83 79 77 78 77 74 71 64 57
101 100 100 100 100 101 102 98 89 80 72 63 57 59 63 69 83 97 102 103 103 103 103 103 103 103 103 103 102 102 101 101 103 103 100 97 99 101 100 97 95 94 92 91 93 99 103 100 94 86 78 76 77 79 80 78 75 73 72 71 74 72 70
100 100 100 100 100 101 100 95 86 78 70 62 57 61 69 78 91 102 104 103 104 103 103 104 104 103 102 102 102 101 101 101 102 104 102 99 99 101 102 99 96 93 91 90 91 94 100 103 102 96 89 85 82 83 86 85 78 73 70 68 70 72 73
100 100 100 100 100 101 100 93 83 75 68 60 57 65 78 88 98 104 104 104 104 102 102 103 103 102 102 102 101 101 100 101 102 102 101 99 99 100 102 100 96 93 94 95 93 92 95 100 104 104 101 98 95 92 92 89 81 77 78 75 71 70 70
100 100 100 100 101 102 98 89 79 73 67 60 60 73 89 98 101 101 101 100 98 95 95 99 101 102 102 101 101 101 100 100 100 99 97 96 94 94 97 100 99 98 99 100 98 94 91 93 99 103 102 103 102 98 95 94 91 89 89 85 79 74 71
100 100 100 100 101 101 95 85 76 70 65 61 67 81 95 101 101 100 99 97 92 91 95 100 101 102 102 101 101 100 100 101 99 94 90 87 85 85 90 95 98 100 102 102 101 98 94 92 94 97 99 102 103 101 99 100 101 99 95 90 85 80 77
99 100 100 100 101 99 92 82 74 69 66 69 79 91 98 101 102 102 102 99 96 97 102 103 103 102 102 102 102 101 100 100 96 89 84 82 82 85 92 97 100 102 102 101 100 100 99 97 95 93 94 97 100 102 103 103 103 101 95 88 83 79 80
100 100 99 100 101 98 90 79 72 70 71 78 89 97 100 101 101 102 102 100 99 100 102 101 102 103 103 103 102 101 101 100 96 88 83 84 87 93 99 101 101 101 100 100 101 103 102 100 98 94 93 93 94 96 99 100 100 99 95 88 82 80 82
100 100 99 101 102 98 88 76 69 70 76 85 95 100 101 101 101 101 102 101 100 102 102 99 98 101 103 103 102 101 101 101 98 93 90 92 95 98 99 99 99 98 98 99 102 104 104 102 100 97 94 92 91 91 93 95 97 98 96 89 83 82 86
100 100 100 102 102 95 84 73 70 75 85 93 100 101 100 100 100 101 101 101 101 102 101 98 97 98 101 103 103 103 103 102 101 100 98 98 98 98 97 97 97 96 96 97 98 99 101 103 102 98 96 95 94 93 92 92 95 98 97 91 84 82 88
101 100 100 102 100 90 78 72 75 81 87 92 98 102 103 101 101 101 99 99 101 102 101 101 102 101 101 101 102 103 103 103 102 101 99 97 97 97 97 96 94 93 93 94 94 95 97 100 101 100 98 96 96 96 95 93 93 95 96 93 86 83 89
101 99 100 103 96 83 76 78 81 82 84 88 95 100 101 99 100 101 101 101 103 103 102 102 102 102 101 101 101 101 100 100 100 100 99 98 97 96 95 93 91 91 90 90 91 92 92 94 97 99 99 97 95 96 97 96 95 94 96 95 89 84 88
100 100 102 101 90 80 81 85 84 80 81 87 91 94 96 98 100 103 104 104 104 103 102 102 101 101 101 101 102 102 101 100 101 101 98 96 94 92 93 92 91 90 89 88 89 89 90 93 95 97 98 96 95 95 97 98 98 97 97 97 91 86 89
99 101 102 97 88 83 85 87 86 84 84 87 92 98 101 101 102 103 104 104 104 103 103 103 102 102 102 102 103 103 102 100 99 97 95 93 91 91 92 92 91 91 90 90 90 90 92 95 96 97 97 96 95 96 97 98 100 101 101 100 95 89 90
100 101 101 97 90 85 85 87 90 91 91 94 100 102 99 95 96 100 103 103 103 101 101 101 100 100 100 100 100 99 99 96 94 93 93 93 93 92 92 93 93 93 93 93 93 94 95 97 97 98 98 98 99 99 99 99 101 103 104 103 98 93 91
Wind_Speed
47 46 46 44 43 41 41 41 41 41 42 43 43 43 42 41 39 38 36 35 34 33 33 32 31 31 30 29 28 28 28 27 26 25 25 25 25 25 25 26 26 25 25 26 28 32 38 45 50 54 56 58 58 58 59 59 60 61 63 64 66 67 67
46 46 45 44 43 41 41 41 41 41 42 42 43 43 43 43 42 41 39 37 36 35 35 34 33 32 32 30 29 29 29 28 26 25 25 25 25 25 25 25 26 25 24 24 26 29 33 39 46 51 54 58 59 59 59 59 60 60 60 62 64 65 66
45 45 45 44 43 41 41 41 41 41 41 41 42 43 44 44 44 43 42 40 38 37 37 36 34 34 34 32 31 30 30 29 27 26 26 25 25 25 24 25 25 25 24 23 24 26 29 34 40 46 52 56 58 60 60 60 60 61 60 61 62 63 64
44 45 45 44 43 41 40 40 40 41 41 41 42 43 44 44 45 45 44 43 41 40 39 38 36 35 35 34 32 31 30 30 29 28 27 26 25 26 25 24 25 25 25 24 23 24 26 30 35 40 47 53 57 59 61 61 60 61 61 61 61 62 62
42 44 44 44 43 42 40 40 40 41 41 41 41 42 43 44 45 45 45 45 43 42 41 40 38 37 37 35 33 32 31 31 30 29 28 26 26 26 25 24 24 24 25 24 23 23 24 26 30 34 41 48 54 58 60 62 62 62 61 61 62 62 62
41 43 43 44 43 42 40 39 40 40 40 40 41 42 42 43 44 45 46 46 45 44 43 41 40 39 38 37 34 32 32 32 31 30 28 27 26 26 25 24 24 24 24 24 23 23 24 25 27 30 34 41 49 55 59 61 62 62 62 61 62 62 62
40 42 42 42 42 42 40 39 39 39 39 40 40 41 41 42 43 44 45 46 46 45 44 43 41 40 39 38 35 33 33 33 32 31 29 27 26 27 26 24 24 24 24 23 22 22 23 24 25 27 30 34 41 50 56 59 61 62 62 61 61 61 62
39 40 41 41 41 41 40 39 38 37 38 39 39 40 40 41 41 43 44 45 45 45 45 44 42 41 40 38 35 34 34 34 33 31 29 27 26 27 26 25 24 23 23 23 22 21 22 22 22 23 25 28 33 42 50 55 59 60 61 61 61 61 61
38 39 40 39 40 40 39 38 37 36 36 38 38 39 39 40 40 42 43 43 44 44 44 43 43 42 41 39 36 35 36 35 33 31 29 26 27 28 27 25 24 23 22 22 21 20 20 20 20 20 22 24 28 33 41 49 55 58 58 59 60 61 60
36 38 38 38 38 39 38 37 35 34 35 37 38 38 39 39 40 40 41 41 42 42 43 43 42 42 41 39 37 37 37 35 33 31 29 26 27 28 27 26 24 22 21 21 20 20 19 17 18 18 18 20 23 26 33 41 49 54 56 57 58 59 59
35 37 37 37 38 38 37 36 33 33 35 36 37 38 38 38 39 39 39 39 39 40 41 42 42 41 41 39 38 38 36 35 33 31 28 26 26 27 27 26 24 21 20 19 19 19 18 17 17 16 16 16 18 22 27 33 41 49 53 55 55 56 57
34 36 36 37 37 37 36 34 32 33 35 36 36 37 37 37 37 38 38 38 37 38 39 40 41 41 40 39 38 38 37 35 33 30 28 27 26 26 26 25 23 21 19 18 18 17 17 17 17 16 15 15 16 18 21 27 34 41 47 51 52 53 54
33 35 35 36 36 36 35 33 31 33 35 34 35 36 37 36 36 36 37 37 36 36 37 38 39 39 39 38 38 38 36 33 31 30 29 27 27 26 26 24 22 20 18 17 15 15 16 17 17 16 16 15 14 14 16 21 26 33 40 45 48 50 50
33 34 34 34 35 36 34 32 31 33 34 34 34 36 36 36 35 34 35 35 35 35 35 36 37 38 37 38 39 38 35 31 30 30 29 28 27 25 24 23 21 19 18 16 13 13 15 16 17 17 17 15 14 13 13 16 20 26 32 38 42 45 47
34 33 32 33 34 35 33 31 31 32 32 33 34 35 36 36 34 33 34 34 34 34 34 34 36 36 37 38 38 37 33 30 30 29 28 28 26 23 22 22 22 20 18 16 12 12 14 15 16 17 17 17 15 14 13 14 16 20 24 30 36 40 43
34 32 31 32 33 34 32 30 30 31 31 32 33 34 35 35 33 32 32 32 32 32 33 34 34 35 36 37 37 35 31 30 30 28 27 26 25 23 21 21 20 21 21 18 14 13 14 15 15 16 17 17 17 16 16 16 16 17 19 23 27 32 36
33 31 30 31 32 32 31 29 29 31 31 31 32 33 34 33 32 31 31 30 31 31 31 33 33 34 35 36 35 33 30 29 29 27 26 24 23 22 21 20 20 22 22 20 17 16 16 16 16 16 17 17 17 17 18 18 17 17 19 20 22 25 28
32 29 29 30 30 31 30 28 28 30 31 30 31 32 32 31 30 30 30 30 30 29 30 31 32 33 34 34 34 32 29 27 27 26 26 24 23 23 21 19 19 21 22 21 20 19 19 19 18 17 17 17 17 17 18 18 18 19 21 21 22 23 25
30 27 27 28 29 30 29 27 27 30 30 29 30 31 30 29 29 29 28 29 29 28 29 30 32 33 33 33 33 30 27 25 26 27 27 25 24 24 21 17 18 21 22 22 21 21 22 22 21 20 19 18 18 17 17 16 17 20 22 22 23 24 25
29 26 26 26 28 29 28 26 27 29 29 28 29 29 29 28 27 27 27 28 28 28 29 30 31 32 32 32 31 28 25 25 27 28 28 26 25 23 19 16 18 21 22 22 23 23 23 23 23 23 22 20 18 18 17 16 16 18 20 22 24 25 27
26 24 24 25 26 27 27 26 26 28 28 28 27 28 27 26 26 26 27 28 28 27 28 29 29 30 31 32 30 26 25 27 29 29 28 27 25 22 17 17 20 21 22 23 23 23 23 23 24 24 23 21 19 18 17 16 16 17 19 21 23 25 27
25 23 23 24 25 26 26 25 25 26 27 27 26 26 26 25 24 25 26 27 27 27 27 28 29 30 31 31 29 26 27 28 28 28 28 27 25 21 18 18 20 21 22 24 24 23 23 23 24 24 24 21 19 18 17 17 17 18 20 22 23 24 26
24 22 22 23 24 25 24 24 25 25 26 26 25 25 24 23 23 24 26 26 26 27 27 28 29 29 30 30 29 28 29 29 29 29 28 27 25 23 20 19 20 20 21 23 23 23 24 24 24 25 25 22 19 18 17 17 18 19 20 21 22 23 23
23 21 21 22 23 24 23 23 24 24 25 24 24 23 23 23 23 24 25 26 26 27 27 27 27 27 28 29 29 29 30 31 31 31 30 28 27 26 23 22 22 21 20 21 22 22 23 24 24 25 25 24 21 20 19 20 20 20 20 20 20 20 21
22 20 20 21 22 23 23 22 23 23 23 23 23 22 22 22 23 24 25 26 27 27 27 26 25 26 27 28 29 29 30 31 32 32 31 30 29 28 27 26 25 24 22 22 22 22 22 23 24 25 25 25 24 24 23 22 21 20 20 20 20 21 22
21 19 19 21 22 22 22 21 21 22 22 22 21 21 22 23 24 25 27 28 28 27 25 24 24 25 27 28 29 30 31 31 32 32 32 31 30 30 29 28 27 26 25 24 24 23 22 22 24 26 26 26 27 26 25 24 23 22 22 21 21 22 22
20 19 19 20 21 21 21 20 20 20 20 21 20 21 22 24 25 26 26 27 26 24 21 21 23 26 28 29 30 31 31 31 31 31 32 31 30 28 27 27 28 27 27 27 26 26 24 23 24 26 27 27 26 26 26 25 24 24 24 23 22 22 22
19 18 19 20 20 20 19 19 19 19 19 19 20 21 22 24 24 24 24 25 24 23 21 22 25 28 29 30 31 31 30 30 30 31 31 30 28 26 25 26 27 27 28 28 28 27 26 24 25 26 26 27 27 27 27 26 25 25 25 23 23 22 21
18 18 19 20 19 18 18 18 18 18 18 19 20 21 23 24 24 25 25 25 25 24 24 25 27 28 29 29 30 30 29 29 30 31 31 29 26 25 25 25 26 26 27 27 27 28 27 27 27 26 26 27 28 27 27 27 26 26 26 25 23 22 20
18 18 19 18 18 18 18 18 18 18 18 19 20 22 24 24 25 25 24 24 25 25 25 25 26 28 29 29 29 28 28 27 29 30 29 27 26 25 25 25 25 25 25 25 26 26 27 28 28 28 27 27 27 27 28 28 27 27 27 26 24 21 19
18 18 18 18 18 18 17 17 17 17 18 19 21 23 24 24 24 24 24 25 25 26 25 24 25 27 28 28 28 28 27 26 26 27 28 27 27 26 26 26 25 25 25 25 25 26 26 28 29 29 28 27 27 27 28 29 29 29 28 27 24 21 19
18 18 18 18 17 17 16 16 16 17 19 20 22 23 23 24 24 24 24 24 24 24 23 23 24 26 27 28 28 27 27 27 27 27 27 28 28 27 27 27 26 26 26 26 26 26 26 27 28 29 29 28 27 27 27 28 30 30 29 27 25 21 19
18 18 18 17 16 15 15 15 17 18 20 20 21 22 23 22 22 21 20 20 21 22 22 23 25 26 27 28 28 28 29 29 29 28 28 29 29 28 28 28 28 27 27 27 27 27 27 27 27 28 29 29 28 27 27 28 29 30 29 28 26 22 19
17 17 17 15 15 15 15 17 18 19 19 19 19 20 19 18 18 18 18 19 20 21 22 23 24 25 27 28 29 30 30 30 30 30 30 30 29 29 28 28 28 28 28 27 27 27 27 27 27 28 28 29 29 28 27 28 29 30 30 29 27 23 19
17 16 15 15 15 16 17 18 18 18 18 17 17 17 17 18 18 18 18 18 19 20 21 22 23 24 25 27 28 29 30 31 31 31 30 30 29 29 28 28 28 27 28 28 27 27 27 27 27 28 28 28 28 28 28 28 29 30 31 30 28 24 21
17 16 16 15 16 16 17 17 17 17 16 15 15 17 19 19 18 17 16 17 18 18 19 21 22 23 24 26 27 28 29 30 30 30 29 29 28 28 28 28 27 27 27 27 27 27 27 27 27 27 27 28 28 28 28 28 28 29 30 30 28 26 23
Wind_Direction
288 286 281 277 275 273 271 269 266 263 260 256 254 252 252 253 254 255 255 256 257 260 262 265 268 270 272 273 275 277 278 279 280 281 282 282 281 279 278 275 272 271 266 258 250 241 234 232 232 233 235 236 236 235 234 234 233 231 230 230 231 231 231
287 286 282 277 274 271 269 268 266 264 261 258 255 253 251 252 253 254 254 255 256 257 260 262 265 268 271 272 273 276 277 278 279 280 280 282 281 279 277 274 272 272 271 266 257 249 240 235 232 231 232 235 236 236 236 235 235 234 233 232 232 232 232
286 286 283 278 273 270 268 267 266 265 262 259 256 254 252 251 251 252 253 254 254 256 258 260 263 266 269 271 272 274 277 278 279 280 280 282 282 279 277 274 272 271 274 273 267 257 248 241 237 232 230 232 234 236 236 236 235 235 235 234 233 233 233
284 286 284 279 273 269 267 266 265 264 262 260 257 254 252 250 250 251 252 253 253 254 257 258 260 263 266 269 271 273 275 277 278 279 279 282 282 279 276 275 273 272 274 275 274 267 258 249 243 237 232 230 231 233 236 236 236 236 236 235 234 234 233
283 285 285 281 275 269 266 264 264 263 262 260 258 255 253 251 250 250 251 252 252 253 255 257 259 261 264 266 269 272 273 275 276 276 277 280 281 279 276 275 274 272 272 275 276 275 269 259 251 244 237 232 230 231 233 235 236 236 236 235 235 235 234
281 284 285 283 278 271 267 264 263 262 262 261 259 256 254 252 250 249 250 251 251 252 253 255 257 259 262 264 267 270 271 273 274 274 276 278 280 279 276 275 274 271 271 274 277 279 276 270 260 252 244 237 232 230 230 232 235 236 236 236 236 236 236
279 283 284 283 279 274 268 264 263 262 261 260 259 258 255 253 251 250 249 250 250 251 252 253 255 257 259 262 264 267 268 269 270 272 274 277 278 278 275 274 274 272 270 272 276 281 280 277 270 261 252 244 237 232 230 230 232 234 235 236 236 236 236
278 281 283 283 280 275 269 265 263 262 261 260 260 259 256 254 252 250 249 249 249 250 251 252 254 255 257 259 262 263 264 266 267 269 272 274 276 276 274 273 272 272 270 270 273 279 282 281 278 270 261 252 243 236 231 230 230 232 233 235 236 236 236
277 280 282 283 280 274 269 265 262 261 260 259 259 258 257 255 253 251 250 249 249 249 251 252 252 254 256 257 258 260 262 264 266 267 269 272 273 273 273 272 271 270 269 268 270 273 278 282 283 278 269 260 250 241 234 231 230 230 231 233 235 235 236
276 279 282 282 278 274 268 264 262 260 259 258 258 258 257 256 254 253 251 250 249 249 249 251 251 252 254 255 255 257 260 262 264 265 267 268 270 271 271 270 269 269 268 266 266 268 272 278 281 280 275 267 257 247 237 232 230 229 230 231 233 234 235
275 279 281 280 277 272 268 263 260 258 257 257 257 257 257 256 255 254 253 251 250 249 249 249 250 250 252 253 253 254 257 259 260 261 264 266 267 268 267 266 267 268 266 263 261 262 265 269 272 276 277 271 262 250 240 233 229 228 229 229 231 232 234
273 278 280 279 275 271 266 261 258 256 255 255 256 257 257 255 255 254 254 252 251 250 249 248 248 248 249 250 251 252 254 256 258 260 261 263 263 262 260 260 262 264 263 261 259 258 257 258 262 267 268 266 262 253 242 234 228 226 227 228 229 231 232
271 276 279 279 275 269 264 259 255 253 254 254 254 256 257 255 253 253 253 252 251 249 248 247 247 246 246 247 249 250 252 254 256 258 259 260 260 258 255 254 256 260 259 256 254 253 253 252 253 255 257 258 257 253 243 235 229 226 225 225 227 229 231
268 273 277 278 275 269 263 258 253 252 252 253 253 255 256 256 253 252 251 251 250 248 246 246 246 244 243 244 246 248 250 252 253 255 258 259 259 257 252 248 246 250 253 254 250 245 246 247 246 247 249 250 249 246 241 234 229 226 224 224 225 226 228
264 272 277 277 272 267 262 256 252 251 251 251 253 254 255 256 255 253 251 249 248 247 245 244 244 242 241 241 244 246 248 249 250 253 256 257 258 255 248 241 238 239 241 243 242 240 240 241 241 241 242 242 241 237 235 231 227 225 223 223 224 225 227
261 270 275 274 270 265 260 255 251 251 250 250 252 254 255 255 255 254 251 248 245 244 243 243 242 241 239 240 242 244 245 246 248 251 253 255 257 254 245 236 233 235 238 234 227 229 234 237 239 240 240 238 236 234 233 230 226 223 220 220 222 225 227
259 267 273 272 269 264 258 253 250 250 250 250 251 253 255 256 255 253 251 248 243 240 240 241 241 240 238 238 240 241 242 245 247 248 249 251 252 251 244 234 227 232 238 236 225 220 223 230 236 241 242 241 237 235 233 231 229 226 222 218 217 219 223
257 265 271 270 267 262 256 251 248 250 250 250 251 253 254 255 255 252 250 246 242 238 237 238 239 239 237 237 238 238 239 242 246 247 247 247 246 244 241 233 229 231 236 237 232 222 219 224 231 236 241 242 241 238 234 232 232 231 228 224 220 217 217
256 263 269 268 264 259 255 249 247 249 250 250 251 253 254 254 253 251 248 244 240 236 234 235 236 237 237 236 236 235 236 239 241 243 245 244 242 241 239 232 230 234 236 237 235 228 221 222 226 230 232 235 239 240 237 233 233 232 231 229 228 225 221
254 262 266 265 260 256 253 248 246 248 250 250 250 252 253 253 252 250 246 242 238 234 233 233 234 235 235 235 233 232 232 233 233 236 240 241 240 240 238 232 233 237 239 240 239 235 229 225 226 229 229 228 231 237 240 239 236 236 235 233 232 231 230
252 259 262 261 258 254 251 247 245 247 250 250 250 252 252 251 251 248 244 240 237 234 232 233 234 234 233 232 229 228 227 225 225 228 233 238 240 238 232 230 235 240 242 244 244 242 237 231 229 232 232 227 223 228 235 239 237 235 237 237 235 233 233
250 256 259 258 255 251 248 246 244 247 249 250 250 250 250 249 247 244 242 239 236 233 232 231 232 231 231 229 225 223 222 221 220 224 228 233 238 238 232 231 236 239 241 243 242 241 239 235 231 233 233 229 223 224 229 234 232 230 232 236 238 237 235
248 253 256 255 252 248 246 244 244 246 248 249 249 249 248 246 243 240 238 237 235 233 231 231 231 230 227 224 221 219 219 219 218 221 225 229 233 234 232 233 236 237 239 241 240 237 237 237 235 234 235 233 230 230 233 236 235 233 233 236 240 243 242
247 251 253 251 249 247 244 241 242 245 247 247 248 246 244 241 238 236 235 235 233 232 231 231 231 228 223 221 219 219 219 219 220 222 224 226 228 229 229 233 237 238 241 245 243 239 236 236 236 237 238 238 237 237 239 242 243 243 243 243 245 246 245
245 248 249 248 246 245 242 240 241 244 246 246 245 243 239 236 234 232 232 233 232 232 232 231 228 223 218 217 218 218 218 219 221 224 226 227 228 229 230 234 239 241 243 246 248 244 238 233 233 235 237 238 239 240 242 246 250 253 256 256 254 251 247
241 243 244 244 244 242 239 239 241 243 245 244 242 238 233 231 229 228 229 231 233 233 234 232 226 219 215 215 216 217 219 220 222 225 228 230 231 231 232 235 241 244 244 246 248 249 244 237 234 234 235 236 238 241 243 247 251 256 260 261 261 259 256
237 238 239 240 240 239 237 237 240 242 243 242 238 233 230 229 228 228 230 233 235 235 232 226 219 215 214 215 216 217 219 221 223 226 229 231 234 235 235 237 241 244 245 245 246 249 249 245 241 239 237 236 236 238 241 244 248 252 255 257 258 259 260
233 234 237 237 236 235 235 238 240 241 240 237 233 229 228 229 229 229 230 232 234 233 227 219 215 214 214 215 216 218 220 221 222 226 230 233 236 238 239 240 241 243 244 245 246 248 248 248 247 244 242 239 236 236 237 239 242 247 250 251 253 256 258
229 231 234 235 233 232 234 237 237 236 233 230 226 225 225 226 227 226 228 230 232 232 228 223 218 216 215 216 217 219 221 221 222 226 231 234 236 237 238 238 239 241 243 244 246 247 246 246 246 246 245 243 241 239 237 236 236 241 246 250 253 258 261
225 228 231 232 230 230 232 234 233 232 229 225 224 224 224 225 226 227 228 230 232 233 231 226 221 217 216 217 218 220 219 219 221 225 229 232 233 234 235 237 238 241 243 244 245 245 244 244 245 245 245 245 244 242 240 236 235 239 245 250 254 259 264
222 225 228 228 227 228 230 230 229 228 225 223 223 224 225 225 225 226 227 228 230 232 232 228 223 218 217 218 219 219 219 219 220 223 227 230 232 234 237 239 240 242 244 244 244 244 243 243 243 244 244 245 244 243 242 239 237 240 243 248 253 258 263
219 223 226 225 225 226 227 226 224 222 221 222 224 225 225 225 225 226 229 231 232 234 232 228 223 219 218 219 220 221 221 223 225 227 230 233 236 237 239 241 242 242 243 243 243 243 242 242 242 243 243 244 243 243 242 240 238 238 241 245 250 255 260
216 220 222 222 222 224 222 220 220 221 222 225 227 228 229 229 229 230 231 231 231 231 227 223 221 219 219 221 222 223 225 227 230 232 234 236 238 239 240 241 241 241 242 242 242 242 241 241 242 242 243 243 242 242 241 239 237 236 237 241 245 250 255
216 218 219 219 220 218 215 215 219 224 226 227 230 234 236 235 232 228 225 224 224 225 223 222 221 220 220 222 224 225 228 230 232 235 237 238 239 240 240 240 240 240 240 241 241 241 241 242 242 242 242 242 241 241 240 239 236 233 233 236 241 245 249
212 214 215 214 213 213 213 214 220 226 229 231 233 235 236 234 230 227 225 224 224 224 224 224 224 223 223 225 226 228 230 232 234 236 238 239 240 240 239 240 240 239 239 239 240 240 240 241 241 242 242 240 239 239 239 237 234 230 230 232 237 241 243
208 210 210 209 209 213 215 216 219 225 229 231 232 233 234 234 233 232 230 229 228 227 227 227 227 227 227 228 229 231 233 234 236 238 239 239 239 239 239 239 239 239 238 238 238 238 238 238 239 239 239 238 237 236 236 235 232 228 227 230 233 237 238